[[{"header":{"parameterUnit":"m.s-1","parameterCategory":1,"la1":30.2991,"la2":30.254,"lo1":-89.0895,"lo2":-89.0444,"dy":0.0017,"dx":0.0017,"nx":28,"ny":28,"refTime":"2024-07-22T09:00:00:Z","depth":0,"parameterNumber":2,"parameterNumberName":"U-component_of_WINDS"},"data":[0,0,0,0,0,0,0,0,0,0,0,0,0,0,0,0,0,0,0,0,0,0,0,0,0,0,0,0,0,0,0,0,0,0,0,0,0,0,0,0,0,0,0,0,0,0,0,0,0,0,0,0,0,0,0,0,0,0,1.5247,1.5247,0,1.5299,1.53,1.53,1.5313,1.5313,1.5313,1.5313,1.5368,1.537,1.5372,0,0,0,0,0,0,0,0,0,0,0,0,0,1.5161,1.5163,1.5247,1.5247,1.5248,1.5299,1.53,1.53,1.5314,1.5313,1.5313,1.5312,1.5368,1.537,1.5372,0,0,0,0,0,0,0,0,0,0,0,0,0,1.5204,1.5163,1.5247,1.5261,1.5262,1.5299,1.53,1.5301,1.5314,1.5313,1.5313,1.5312,1.5367,1.5369,1.5372,1.5399,0,0,1.538,1.5382,0,0,0,0,0,0,0,0,1.5202,1.5207,1.5258,1.526,1.5262,1.5299,1.529,1.5334,1.5314,1.5294,1.5312,1.5312,1.5346,1.535,1.5361,1.5401,1.5404,1.5381,1.5382,1.5383,1.5384,0,0,0,0,0,0,0,1.5199,1.5205,1.5267,1.5259,1.5261,1.5265,1.5271,1.5298,1.5322,1.5296,1.5297,1.5303,1.5347,1.5358,1.5363,1.5405,1.5381,1.5383,1.5385,1.5386,1.5471,1.5471,0,0,0,0,0,0,1.5193,1.5203,1.5266,1.5269,1.523,1.5267,1.5273,1.5288,1.5322,1.5327,1.5303,1.5303,1.5354,1.5359,1.5365,1.5399,1.5383,1.5386,1.5387,1.547,1.5471,1.5472,0,0,0,0,0,0,1.5191,1.5199,1.5264,1.5236,1.5245,1.5269,1.5285,1.5289,1.5301,1.5327,1.5332,1.5311,1.5354,1.5361,1.539,1.5401,1.5387,1.539,1.5469,1.547,1.5471,1.5467,0,0,0,0,0,0,1.5189,1.5198,1.5207,1.5236,1.5246,1.5288,1.5286,1.529,1.5305,1.5306,1.5336,1.534,1.5354,1.5386,1.5393,1.5404,1.5392,1.5469,1.547,1.5471,1.5466,1.5468,1.5469,0,0,0,0,0,1.5186,1.5204,1.5208,1.5215,1.5259,1.5288,1.5294,1.5309,1.5306,1.5316,1.5334,1.5339,1.5399,1.5389,1.5397,1.5409,1.5468,1.547,1.5471,1.5466,1.5467,1.5469,0,0,0,0,0,0,1.5176,1.5208,1.5213,1.5241,1.5262,1.529,1.5304,1.531,1.5333,1.5332,1.5351,1.5357,1.5386,1.5401,1.539,1.5437,1.5433,1.5436,1.5427,1.5429,1.543,1.5426,1.5394,0,0,0,0,0,1.5178,1.5198,1.5225,1.5248,1.5258,1.5279,1.5293,1.5302,1.5325,1.5334,1.5354,1.5376,1.54,1.5415,1.5438,1.5468,1.5476,1.5481,1.5482,1.5483,1.5486,1.5504,1.5507,1.5476,1.5476,1.5476,0,0,1.5181,1.5201,1.5212,1.5247,1.5264,1.5286,1.5286,1.5309,1.5326,1.5338,1.5367,1.5382,1.5408,1.5438,1.5453,1.5452,1.5496,1.5485,1.5485,1.5488,1.5506,1.5508,1.5511,1.5477,1.5477,1.5477,0,0,1.5197,1.5214,1.5235,1.5252,1.5278,1.5292,1.5297,1.5325,1.5336,1.5365,1.5375,1.5395,1.5436,1.5454,1.5469,1.5494,1.55,1.5501,1.5508,1.5525,1.5528,1.553,1.5539,1.5542,1.5503,1.5503,1.5503,0,1.5197,1.523,1.5245,1.5268,1.5283,1.5294,1.5316,1.5333,1.5365,1.5376,1.5374,1.5425,1.5444,1.5479,1.5485,1.5496,1.5504,1.5498,1.5526,1.5528,1.5531,1.554,1.5543,1.5503,1.5503,1.5503,1.5503,0,1.523,1.5252,1.5266,1.5297,1.5314,1.5336,1.5356,1.5371,1.538,1.5395,1.5425,1.5448,1.5476,1.5485,1.5494,1.5522,1.5521,1.5522,1.5518,1.5533,1.5542,1.5546,1.5503,1.5503,1.5503,1.5503,0,0,1.5241,1.5281,1.5286,1.53,1.533,1.5349,1.5372,1.5399,1.5413,1.5435,1.5456,1.549,1.5492,1.5509,1.552,1.5535,1.5554,1.5535,1.5536,1.5538,1.5588,1.5587,1.5591,1.5559,1.5559,1.556,1.5586,0,1.5262,1.5303,1.5318,1.5353,1.5374,1.5386,1.5406,1.5428,1.5442,1.5464,1.548,1.5504,1.5504,1.5515,1.553,1.5548,1.5565,1.5547,1.5579,1.558,1.5572,1.5595,1.5594,1.5617,1.5589,1.559,1.559,0,1.5291,1.5314,1.535,1.5379,1.5388,1.5406,1.5433,1.5453,1.5478,1.5488,1.5507,1.5517,1.5543,1.5538,1.5575,1.5562,1.5577,1.5588,1.5589,1.5593,1.5586,1.56,1.5625,1.5629,1.5596,1.5596,1.5595,0,1.5297,1.5337,1.5364,1.5376,1.5409,1.5422,1.5437,1.5461,1.5477,1.5501,1.5511,1.5538,1.5553,1.5574,1.5591,1.5586,1.5627,1.5623,1.5637,1.5636,1.5645,1.5644,1.5673,1.5653,1.5653,1.5653,1.5653,0,1.5319,1.5341,1.5367,1.5384,1.5409,1.5427,1.5452,1.5467,1.5489,1.551,1.5521,1.5541,1.5563,1.5585,1.5599,1.5628,1.5635,1.5644,1.5647,1.5643,1.5642,1.5653,1.5652,1.5654,1.5654,1.5654,1.5654,0,1.5329,1.5347,1.5378,1.5407,1.5415,1.5433,1.5458,1.5476,1.5491,1.5517,1.5525,1.5549,1.5576,1.5596,1.5631,1.5641,1.5672,1.5675,1.5663,1.5665,1.5678,1.5676,1.5715,1.5721,1.5697,1.5697,1.5697,0,1.5342,1.5359,1.539,1.5405,1.5419,1.5443,1.5459,1.5477,1.5494,1.5524,1.5538,1.5566,1.5589,1.5633,1.5654,1.5682,1.5686,1.5697,1.569,1.5685,1.5687,1.5686,1.5688,1.5698,1.5699,1.5699,1.5699,0,1.5363,1.5371,1.5394,1.542,1.5439,1.5461,1.5483,1.5494,1.5516,1.5535,1.5563,1.5581,1.5617,1.5645,1.5675,1.5691,1.5699,1.5701,1.5706,1.5701,1.5694,1.5699,1.5667,1.57,1.57,1.57,1.57,1.57,1.5375,1.5391,1.5416,1.5441,1.546,1.548,1.5498,1.5516,1.5539,1.5569,1.5579,1.5608,1.5634,1.5674,1.5691,1.5715,1.5714,1.5721,1.5723,1.5724,1.5724,1.569,1.572,1.572,1.572,1.572,1.572,0,1.5397,1.5414,1.5437,1.5467,1.5487,1.5493,1.5517,1.5534,1.5559,1.5582,1.5605,1.5638,1.5665,1.5689,1.5718,1.5732,1.5737,1.5739,1.5739,1.5742,1.5723,1.5716,1.5735,1.5735,1.5735,1.5735,1.5735,1.5735,1.5411,1.5439,1.545,1.5488,1.5505,1.5533,1.5547,1.5566,1.5585,1.562,1.5643,1.5658,1.5682,1.5713,1.5739,1.5745,1.5755,1.5757,1.5764,1.5745,1.5744,1.5742,1.5736,1.5759,1.5759,1.5782,1.5782,1.5782]},{"header":{"parameterUnit":"m.s-1","parameterCategory":1,"la1":30.2991,"la2":30.254,"lo1":-89.0895,"lo2":-89.0444,"dy":0.0017,"dx":0.0017,"nx":28,"ny":28,"refTime":"2024-07-22T09:00:00:Z","depth":0,"parameterNumber":3,"parameterNumberName":"V-component_of_WINDS"},"data":[0,0,0,0,0,0,0,0,0,0,0,0,0,0,0,0,0,0,0,0,0,0,0,0,0,0,0,0,0,0,0,0,0,0,0,0,0,0,0,0,0,0,0,0,0,0,0,0,0,0,0,0,0,0,0,0,0,0,1.9083,1.9085,0,1.9228,1.9229,1.9231,1.9268,1.9268,1.9267,1.9266,1.9414,1.9418,1.9423,0,0,0,0,0,0,0,0,0,0,0,0,0,1.8837,1.8841,1.9083,1.9085,1.9087,1.9227,1.9229,1.9231,1.9269,1.9268,1.9266,1.9265,1.9412,1.9418,1.9423,0,0,0,0,0,0,0,0,0,0,0,0,0,1.8959,1.8843,1.9083,1.9123,1.9127,1.9227,1.9229,1.9232,1.9269,1.9268,1.9266,1.9265,1.941,1.9417,1.9424,1.9495,0,0,1.9446,1.9449,0,0,0,0,0,0,0,0,1.8952,1.8968,1.9115,1.912,1.9126,1.9229,1.9197,1.932,1.9269,1.9215,1.9266,1.9264,1.9353,1.9365,1.9395,1.9502,1.9508,1.9447,1.9451,1.9454,1.9456,0,0,0,0,0,0,0,1.8943,1.8962,1.914,1.9117,1.9124,1.9132,1.9148,1.922,1.929,1.922,1.9223,1.9239,1.9356,1.9388,1.9399,1.951,1.9446,1.9453,1.9457,1.946,1.9676,1.9678,0,0,0,0,0,0,1.8928,1.8955,1.9136,1.9145,1.9034,1.9137,1.9155,1.9197,1.9289,1.9302,1.924,1.9241,1.9376,1.939,1.9404,1.9489,1.9454,1.9461,1.9465,1.9675,1.9677,1.9678,0,0,0,0,0,0,1.8923,1.8944,1.913,1.9051,1.9075,1.9143,1.919,1.9201,1.9233,1.9305,1.9317,1.9261,1.9376,1.9394,1.9471,1.9495,1.9464,1.947,1.9673,1.9675,1.9677,1.9662,0,0,0,0,0,0,1.8916,1.8942,1.8971,1.9051,1.9079,1.9195,1.9191,1.9204,1.9245,1.9246,1.9327,1.9339,1.9376,1.946,1.9478,1.9504,1.9476,1.9671,1.9674,1.9677,1.9661,1.9664,1.9666,0,0,0,0,0,1.8907,1.8962,1.8972,1.8994,1.9116,1.9197,1.9213,1.9255,1.9247,1.9275,1.932,1.9336,1.9489,1.9467,1.9488,1.9517,1.967,1.9673,1.9677,1.966,1.9663,1.9666,0,0,0,0,0,0,1.8884,1.8973,1.8986,1.9069,1.9124,1.9203,1.9241,1.9258,1.9317,1.9317,1.9365,1.9383,1.9456,1.9494,1.9468,1.9587,1.958,1.9587,1.956,1.9564,1.9566,1.9555,1.9482,0,0,0,0,0,1.8889,1.8947,1.9022,1.9087,1.9115,1.9172,1.9209,1.9236,1.9296,1.932,1.9372,1.9429,1.949,1.9529,1.9589,1.9666,1.9683,1.9696,1.9699,1.97,1.9706,1.9746,1.9752,1.9689,1.9689,1.9689,0,0,1.8899,1.8955,1.8989,1.9084,1.9131,1.9189,1.9193,1.9255,1.9298,1.933,1.9405,1.9444,1.9511,1.9587,1.9623,1.9621,1.9727,1.9705,1.9705,1.9711,1.975,1.9756,1.9761,1.9691,1.9691,1.9691,0,0,1.8947,1.8996,1.9054,1.91,1.917,1.9207,1.9221,1.9296,1.9322,1.9398,1.9422,1.9473,1.9578,1.9623,1.966,1.9719,1.9735,1.9737,1.9751,1.9789,1.9793,1.9798,1.9817,1.9823,1.9743,1.9743,1.9743,0,1.8951,1.904,1.9082,1.9142,1.9182,1.9212,1.9269,1.9312,1.9398,1.9423,1.942,1.9548,1.9596,1.9681,1.9694,1.9724,1.9739,1.9729,1.9789,1.9794,1.9799,1.9817,1.9825,1.9742,1.9742,1.9742,1.9742,0,1.9039,1.91,1.9139,1.9219,1.9263,1.9322,1.9371,1.941,1.9431,1.9468,1.9542,1.96,1.967,1.9692,1.9715,1.9779,1.9775,1.978,1.9773,1.9804,1.9822,1.9829,1.9742,1.9742,1.9742,1.9742,0,0,1.908,1.918,1.9193,1.9228,1.9305,1.9352,1.941,1.9478,1.9509,1.9566,1.9614,1.9699,1.9703,1.9744,1.9772,1.9805,1.9844,1.9805,1.9807,1.9809,1.9914,1.991,1.9917,1.9854,1.9856,1.9857,1.9908,0,1.9136,1.9241,1.9279,1.9365,1.9419,1.9446,1.9496,1.9548,1.9583,1.9633,1.9671,1.973,1.9731,1.9756,1.979,1.9832,1.9866,1.9829,1.9898,1.99,1.988,1.9927,1.9923,1.9969,1.9915,1.9917,1.9918,0,1.9216,1.9272,1.9363,1.9429,1.9453,1.9498,1.956,1.9609,1.9666,1.9689,1.9732,1.9757,1.9816,1.9804,1.9885,1.9859,1.9889,1.9914,1.9916,1.9924,1.9911,1.9934,1.9985,1.9991,1.9929,1.9929,1.9928,0,1.9233,1.9331,1.9397,1.9427,1.9506,1.9536,1.957,1.9626,1.9663,1.9717,1.9741,1.9802,1.9835,1.988,1.9919,1.9908,1.9995,1.9988,2.0014,2.0012,2.0031,2.0029,2.0085,2.0052,2.0052,2.0052,2.0052,0,1.9291,1.9345,1.9405,1.9446,1.9506,1.9547,1.9605,1.9641,1.969,1.9736,1.9763,1.9806,1.9855,1.9904,1.9934,1.9994,2.001,2.0028,2.0036,2.0025,2.0023,2.0046,2.0043,2.0054,2.0053,2.0053,2.0053,0,1.932,1.9363,1.9436,1.9504,1.9522,1.9563,1.9621,1.966,1.9694,1.9752,1.9768,1.9822,1.988,1.9923,1.9999,2.0019,2.0083,2.0091,2.0063,2.0067,2.0089,2.0086,2.0161,2.0172,2.0132,2.0133,2.0133,0,1.9354,1.9395,1.9467,1.9499,1.9533,1.9586,1.9623,1.9663,1.97,1.9766,1.9797,1.9856,1.9906,1.9997,2.0042,2.0099,2.0108,2.013,2.0117,2.0104,2.0106,2.0102,2.0105,2.0132,2.0132,2.0133,2.0133,0,1.9408,1.9426,1.9478,1.9536,1.9579,1.9627,1.9675,1.97,1.9749,1.9789,1.9848,1.9886,1.9961,2.0019,2.008,2.0114,2.013,2.0136,2.0145,2.0135,2.0116,2.0124,2.0067,2.0135,2.0134,2.0134,2.0134,2.0134,1.9439,1.9476,1.953,1.9586,1.9626,1.967,1.9709,1.9747,1.9797,1.9861,1.9882,1.9942,1.9994,2.0077,2.0111,2.0157,2.0157,2.017,2.0173,2.0176,2.0174,2.0108,2.0169,2.0169,2.0169,2.0169,2.0169,0,1.9492,1.9528,1.9579,1.9644,1.9687,1.9699,1.9752,1.9787,1.9839,1.9887,1.9934,2.0,2.0055,2.0103,2.0159,2.0187,2.0196,2.02,2.0198,2.0205,2.0172,2.0158,2.0192,2.0192,2.0192,2.0192,2.0192,2.0192,1.9525,1.9587,1.9611,1.9691,1.9727,1.9785,1.9814,1.9853,1.9891,1.9963,2.0008,2.0039,2.0086,2.0145,2.0195,2.0208,2.0226,2.0229,2.0243,2.0211,2.0208,2.0205,2.0192,2.0233,2.0233,2.0272,2.0272,2.0273]}]]